Simultaneous Nadir Overpasses (SNOs) Predictions

Prediction of SNOs between GOES-16 and NOAA-20 Satellite Orbit:

Table of predicted SNOs for the next 14.0 days since TLE Epoch: 8/24/2018
Index Date Time (GOES-16) GOES-16 Lat,Lon NOAA-20 Lat,Lon Distance(km) Time Diff (sec)
1 08/25/2018 06:10:29 -0.03, -75.20 -0.73, -71.98 366.49 80
2 08/26/2018 18:32:27 0.03, -75.21 -0.43, -77.29 237.47 80
3 08/27/2018 18:16:22 0.03, -75.22 0.58, -72.76 280.07 80
4 08/29/2018 06:38:10 -0.04, -75.24 0.58, -78.03 317.80 80
5 08/30/2018 06:16:46 -0.04, -75.26 -0.42, -73.50 199.97 80
6 08/31/2018 18:38:43 0.04, -75.27 -0.73, -78.82 403.18 80
7 09/01/2018 18:22:39 0.04, -75.29 0.28, -74.28 114.79 80
8 09/03/2018 06:44:27 -0.04, -75.32 0.88, -79.56 482.65 80
9 09/04/2018 06:23:03 -0.05, -75.33 -0.13, -75.03 35.26 80
10 09/06/2018 18:26:14 0.05, -75.37 -0.07, -75.80 49.65 80




NCC Satellite Simultaneous Nadir Overpasses (SNOs) Prediction Service
